Regional Weather Roundup
Issued by NWS

Home | Current Version | Previous Version | Text Only | Print | Product List | Glossary On
Versions: 1 2 3 4 5 6 7 8 9 10 11 12 13 14 15 16 17 18 19 20 21 22 23 24 25 26 27 28 29 30 31 32 33 34 35 36 37 38 39 40 41 42 43 44 45 46 47 48 49 50
000
ASUS45 KBOI 280310
RWRID
WEATHER ROUNDUP FOR IDAHO
NATIONAL WEATHER SERVICE BOISE ID
900 PM MDT WED AUG 27 2014

NOTE: "FAIR" INDICATES FEW OR NO CLOUDS BELOW 12000 FEET
WITH NO SIGNIFICANT WEATHER AND/OR OBSTRUCTIONS TO VISIBILITY

IDZ012-014-280400-
SOUTHWEST IDAHO


CITY           SKY/WX    TMP DP  RH WIND       PRES   REMARKS
BOISE          CLEAR     84  37  18 CALM      30.04R
CALDWELL       CLEAR     77  45  31 SE6       30.03S
MOUNTAIN HOME  CLEAR     82  38  21 N2        30.05S
$$

IDZ016-017-280400-
SOUTHCENTRAL IDAHO


CITY           SKY/WX    TMP DP  RH WIND       PRES   REMARKS
BURLEY         CLEAR     66  53  63 S3        30.14R
JEROME         CLEAR     66  49  54 E3        30.13S
TWIN FALLS     CLEAR     68  50  52 S9        30.13F
$$

IDZ019>023-280400-
SOUTHEAST IDAHO


CITY           SKY/WX    TMP DP  RH WIND       PRES   REMARKS
IDAHO FALLS    CLEAR     69  49  48 SW9       30.17R
POCATELLO      CLEAR     67  48  50 S10       30.17R
REXBURG        CLEAR     65  47  52 S6        30.17R
$$

IDZ006-010-011-018-031-032-280400-
CENTRAL IDAHO MOUNTAINS


CITY           SKY/WX    TMP DP  RH WIND       PRES   REMARKS
MCCALL         CLEAR     68  41  37 SW5       30.17R
HAILEY         PTCLDY    66  46  48 SE10      30.21R
STANLEY          N/A     58  39  49 S5        30.28R
SALMON         CLEAR     66  46  48 S6        30.08R
CHALLIS        CLEAR     67  42  40 NW5       30.14R
$$

IDZ002-004-006-007-026-280400-
NORTHERN IDAHO


CITY           SKY/WX    TMP DP  RH WIND       PRES   REMARKS
LEWISTON       CLEAR     86  46  24 SE6       29.91S
LOWELL           N/A     67  56  67 N3        29.97R
COEUR D`ALENE  CLEAR     73  46  38 S7        29.94S
MULLAN PASS    CLEAR     63  38  39 VRB5      30.20S
$$



USA.gov is the U.S. government's official web portal to all federal, state and local government web resources and services.